DELTA 1 DEB, 9835

Orbit data source: Space-Track

DELTA 1 DEB, 9835 is space debris in LEO originally from a launch on Tue, 06 Nov 1973 UTC launched from the Air Force Western Test Range (AFWTR). Debris objects in space refer to the collection of defunct objects orbiting the Earth. Examples of debris include non-operational satellites, rocket bodies, and fragments generated from explosions, collisions, or faulty payload assembly.

Loading next visibility...
Identifier
9835, 1973-086GD
Orbit
LEO
Country
Flag of USUS
Related business
Manufacturer
Unknown
Mission
Spacecraft
Bus & Motor
Unknown
Mass
Unknown
Launch date (UTC)
1973-11-06 (52 years ago)
Launch vehicle
Unknown
Launch site
Air Force Western Test Range (AFWTR)
Object type
Payload
Rocket body
Debris
Shape & HBR
Unknown shape, 0.1 m
Radar Cross Section
Small (<0.1 m²)

Expand to show TLE details & history
Last TLE update: 5 hours ago

TLE from 5 hours ago
0 DELTA 1 DEB
1  9835U 73086GD  25300.10256662  .00000468  00000-0  82074-2 0  9998
2  9835 101.3236 166.6708 0666581  59.5307  88.4964 11.33440800560158
Epoch: 2025-10-27T02:27Z
TLE epoch observation values (Epoch: 2025-10-27T02:27:41.755Z)
Latitude
23.86058°
Longitude
-80.90439°
Altitude
2,018.347 km
Speed
6.884 km/s
True Right ascension
23h 26m 54s
True Declination
23° 45' 10"
Sunlit
Object was in full shadow at epoch
Visualization orbit readout
Latitude
Unknown
Longitude
Unknown
Altitude
Unknown
Speed
Unknown
Apparent Right ascension
Unknown
Apparent Declination
Unknown
Sunlit
N/A
Visualization observer readout
Local Sidereal Time
02:33:08
Azimuth
Unknown
Elevation
Unknown
Doppler factor
Unknown
Orbital elements
Apogee altitude
2,548.886 km
Perigee altitude
1,433.142 km
Semi-major axis
8,369.151 km
Eccentricity
0.06666
Inclination
101.3236°
RAAN
166.6708°
Arg. of periapsis
59.5307°
True anomaly
96.12634°
Mean anomaly
88.4964°
Eccentric anomaly
92.31252°
Mean motion
2.83479 °/min
Orbital period
126.99 mins
BSTAR
0.0082074
Loading maneuver chart data...
Computing Atmospheric mass density...

Documentation

Showing up to 5 results
|